Location: Fort Worth, Tx
(32.7431°N, 97.3695°W)
Time: 21:53:29
(UTC-05:00)

Tiros 1 - Pass Details

Date: 07 October 2024
Orbit: 622 x 654 km, 48.4° (Epoch: 05 November)

Event Time Altitude Azimuth Distance (km) Brightness Sun altitude
Rises 12:16:29 0° 306° (NW) 2,916 10.1 41.9°
Reaches altitude 10° 12:20:43 10° 343° (NNW) 2,000 9.4 42.5°
Maximum altitude 12:21:57 11° 359° (N) 1,937 9.4 42.7°
Drops below altitude 10° 12:23:10 10° 14° (NNE) 1,996 9.5 42.8°
Sets 12:27:23 0° 52° (NE) 2,897 10.5 43.4°
